Location: Ocean City
(38.3360°N, 75.0850°W)
Time: 19:55:08
(UTC-05:00)

SR - All Passes

Search period start: 15 November 2019 00:00
Search period end: 25 November 2019 00:00
Orbit: 574 x 882 km, 66.7° (Epoch: 14 November)

Date Brightness Start Highest point End Pass type
(mag) Time Alt. Az. Time Alt. Az. Time Alt. Az.
15 Nov - 00:53:11 10° NNW 00:59:09 87° WSW 01:04:51 10° SSE night (unlit)
15 Nov - 02:38:36 10° W 02:40:18 11° W 02:41:59 10° WSW night (unlit)
15 Nov - 15:21:04 10° SSW 15:26:12 89° SE 15:31:52 10° NNE daylight
15 Nov - 17:06:00 10° WNW 17:09:12 16° NW 17:12:33 10° N visible
15 Nov - 22:24:54 10° NNE 22:25:50 10° NE 22:26:45 10° NE night (unlit)
16 Nov - 00:03:37 10° NNW 00:09:24 50° ENE 00:14:57 10° SE night (unlit)
16 Nov - 01:46:32 10° NW 01:51:08 24° WSW 01:55:34 10° SSW night (unlit)
16 Nov - 14:31:52 10° S 14:36:42 44° ESE 14:41:58 10° NE daylight
16 Nov - 16:14:32 10° WSW 16:19:00 27° NW 16:23:47 10° N daylight
16 Nov - 23:14:21 10° N 23:19:26 28° NE 23:24:22 10° ESE night (unlit)
17 Nov - 00:56:07 10° NW 01:01:47 47° WSW 01:07:10 10° S night (unlit)
17 Nov - 13:43:35 10° SSE 13:47:24 21° ESE 13:51:27 10° ENE daylight
17 Nov - 15:23:58 10° SW 15:29:02 49° WNW 15:34:31 10° NNE daylight
17 Nov - 22:25:31 10° N 22:29:15 17° NE 22:32:55 10° E night (unlit)
18 Nov - 00:06:15 10° NNW 00:12:14 89° ENE 00:17:54 10° SSE night (unlit)
18 Nov - 01:51:16 10° W 01:53:26 12° W 01:55:34 10° WSW night (unlit)
18 Nov - 14:34:07 10° SSW 14:39:17 85° ESE 14:44:58 10° NNE daylight
18 Nov - 16:18:48 10° W 16:22:13 17° NW 16:25:47 10° N daylight
18 Nov - 23:16:44 10° NNW 23:22:27 48° NE 23:27:57 10° SE night (unlit)
19 Nov - 00:59:32 10° NW 01:04:15 25° WSW 01:08:47 10° SSW night (unlit)
19 Nov - 13:44:58 10° S 13:49:48 41° ESE 13:55:01 10° NE daylight
19 Nov - 15:27:27 10° WSW 15:32:02 28° NW 15:36:56 10° N daylight
19 Nov - 22:27:30 10° N 22:32:29 27° NE 22:37:18 10° ESE night (unlit)
20 Nov - 00:09:12 10° NW 00:14:52 50° WSW 00:20:18 10° S night (unlit)
20 Nov - 12:56:48 10° SSE 13:00:31 20° ESE 13:04:25 10° ENE daylight
20 Nov - 14:36:58 10° SW 14:42:05 53° WNW 14:47:39 10° NNE daylight
20 Nov - 16:25:06 10° NW 16:25:38 10° NW 16:26:10 10° NNW daylight
20 Nov - 21:38:42 10° N 21:42:16 16° NE 21:45:46 10° E night (unlit)
20 Nov - 23:19:20 10° NNW 23:25:19 84° ENE 23:30:58 10° SSE night (unlit)
21 Nov - 01:04:02 10° WNW 01:06:33 13° W 01:09:02 10° SW night (unlit)
21 Nov - 13:47:10 10° SSW 13:52:22 80° ESE 13:58:02 10° NNE daylight
21 Nov - 15:31:39 10° W 15:35:14 17° NW 15:38:59 10° N daylight
21 Nov - 22:29:50 10° NNW 22:35:31 45° NE 22:40:57 10° SE night (unlit)
22 Nov - 00:12:32 10° NW 00:17:22 27° WSW 00:21:59 10° SSW night (unlit)
22 Nov - 12:58:06 10° S 13:02:53 39° ESE 13:08:04 10° NE daylight
22 Nov - 14:40:23 10° WSW 14:45:04 30° NW 14:50:04 10° N daylight
22 Nov - 21:40:38 10° N 21:45:31 26° NE 21:50:14 10° ESE night (unlit)
22 Nov - 23:22:15 10° NW 23:27:58 54° WSW 23:33:25 10° S night (unlit)
23 Nov - 12:10:02 10° SSE 12:13:37 19° ESE 12:17:23 10° ENE daylight
23 Nov - 13:49:57 10° SW 13:55:08 56° WNW 14:00:46 10° NNE daylight
23 Nov - 15:37:18 10° NW 15:38:37 11° NW 15:39:58 10° NNW daylight
23 Nov - 20:51:55 10° N 20:55:17 15° NE 20:58:35 10° ENE night (unlit)
23 Nov - 22:32:26 10° NNW 22:38:23 80° ENE 22:44:01 10° SSE night (unlit)
24 Nov - 00:16:51 10° WNW 00:19:40 14° WSW 00:22:26 10° SW night (unlit)
24 Nov - 13:00:14 10° SSW 13:05:26 75° ESE 13:11:08 10° NNE daylight
24 Nov - 14:44:29 10° W 14:48:15 18° NW 14:52:10 10° N daylight
24 Nov - 21:42:57 10° NNW 21:48:35 43° NE 21:53:56 10° SE night (unlit)
24 Nov - 23:25:32 10° NW 23:30:27 29° WSW 23:35:10 10° SSW night (unlit)
